Time[GMT],current_u[cm/s](10m),current_v[cm/s](10m),current_u[cm/s](14m),current_v[cm/s](14m),current_u[cm/s](18m),current_v[cm/s](18m),current_u[cm/s](22m),current_v[cm/s](22m),current_u[cm/s](26m),current_v[cm/s](26m),current_u[cm/s](30m),current_v[cm/s](30m),current_u[cm/s](34m),current_v[cm/s](34m),current_u[cm/s](38m),current_v[cm/s](38m),current_u[cm/s](42m),current_v[cm/s](42m),current_u[cm/s](46m),current_v[cm/s](46m),current_u[cm/s](50m),current_v[cm/s](50m),current_u[cm/s](54m),current_v[cm/s](54m)
2003-10-10 20:00,13.69,-14.75,12.30,-16.40,3.17,-5.84,5.08,-8.10,4.28,-10.00,1.75,-9.91,0.10,-9.24,-0.58,-10.48,-0.91,-9.33,-1.55,-5.04,-1.40,-6.25,-0.93,-9.65
2003-10-10 21:00,8.12,-8.88,10.03,-8.63,0.83,-1.42,4.02,0.14,1.84,-0.61,-0.34,-0.62,-1.26,1.82,-1.62,1.61,-2.38,2.43,-5.91,2.02,-4.79,1.41,-3.52,2.41
2003-10-10 22:00,2.96,-9.03,6.60,-7.97,0.55,-2.24,-0.35,-1.66,-2.61,0.38,-1.79,2.19,-1.80,2.60,-0.41,3.53,-0.63,5.34,-2.34,8.69,-0.71,10.63,0.52,11.40
2003-10-10 23:00,-6.81,-4.49,-2.17,-5.74,-1.18,-2.01,-6.11,-2.62,-5.88,-0.57,-4.59,0.01,-3.03,2.87,-2.59,1.01,0.50,3.27,0.36,8.02,1.72,8.73,1.24,7.14
2003-10-11 00:00,-16.32,0.22,-18.49,5.84,-10.70,2.39,-9.85,-0.17,-6.19,-1.29,-4.76,3.09,0.11,2.12,1.36,3.53,3.88,4.89,6.17,5.25,7.89,5.44,10.45,5.25
2003-10-11 01:00,-15.12,3.60,-19.60,10.72,-14.13,12.33,-10.62,13.15,-7.88,7.70,-4.78,4.23,-2.29,3.91,-1.07,-0.63,2.74,-1.18,5.59,0.49,8.35,0.67,8.97,0.33
2003-10-11 02:00,-11.59,13.59,-11.44,8.84,-9.72,5.07,-10.11,8.19,-8.07,11.91,-1.61,11.20,4.56,3.63,8.72,-1.30,10.41,-5.29,10.28,-11.27,14.44,-10.88,19.46,-12.02
2003-10-11 03:00,-1.32,14.83,-4.99,4.58,-3.58,4.06,1.53,7.22,0.40,1.47,3.08,-4.10,-0.30,-8.22,-2.33,-10.89,1.49,-11.86,2.49,-13.13,1.28,-15.77,0.28,-16.28
2003-10-11 04:00,7.22,0.97,5.82,5.04,4.14,3.30,2.57,0.13,0.69,-4.49,-1.26,-4.95,0.98,-4.40,3.18,-5.53,4.74,-10.49,-1.12,-12.21,-3.92,-15.42,-4.18,-13.83
2003-10-11 05:00,2.75,-0.86,5.83,2.85,5.84,1.40,2.73,-1.49,2.08,-3.56,2.51,-3.95,-0.63,-6.02,-3.69,-10.88,-7.11,-15.21,-10.07,-16.49,-11.86,-16.81,-10.89,-14.75
2003-10-11 06:00,9.15,-5.97,14.71,-1.84,11.78,-1.45,10.34,-6.14,8.87,-8.24,7.19,-9.98,3.18,-12.30,1.19,-14.03,1.06,-15.01,-2.54,-13.04,-5.40,-14.29,-7.07,-13.22
2003-10-11 07:00,2.39,-2.11,9.35,-2.05,4.27,-2.50,4.71,-5.40,3.29,-6.96,2.55,-8.01,0.36,-9.06,-5.09,-9.31,-10.24,-9.15,-10.01,-9.60,-11.17,-7.75,-10.25,-7.69
2003-10-11 08:00,13.74,-2.44,14.76,-5.58,3.15,-2.93,2.07,-8.15,2.78,-8.77,1.54,-7.05,0.66,-6.16,-0.91,-5.79,-4.45,-4.74,-6.30,-3.41,-7.84,-4.17,-4.39,-3.16
2003-10-11 09:00,23.34,-8.17,15.85,-8.59,1.86,-2.79,4.34,-3.42,4.86,-4.52,6.66,-4.61,5.85,-3.60,3.75,-2.13,0.71,-1.36,-0.98,0.13,0.49,2.96,1.94,3.69
2003-10-11 10:00,16.57,-7.13,9.69,-9.25,0.89,-3.39,1.18,-2.26,2.54,-3.32,3.58,-1.56,1.93,-0.89,0.12,-1.84,-1.25,-1.41,-1.00,2.00,0.76,5.22,1.58,4.94
2003-10-11 11:00,10.15,-5.47,6.00,-5.54,-0.43,-1.38,0.86,-1.52,0.41,-1.03,0.63,-1.07,2.31,-0.78,1.21,-0.58,1.41,1.25,1.55,6.81,2.68,9.01,2.43,9.15
2003-10-11 12:00,-5.46,4.76,0.11,2.12,-0.54,-0.99,2.07,-1.37,1.83,-0.19,2.41,1.75,3.16,2.38,4.74,2.32,6.05,3.54,7.21,5.97,8.40,7.98,8.14,7.80
2003-10-11 13:00,-5.28,18.04,-7.31,11.09,-6.23,2.76,-6.27,0.77,-4.36,1.02,-5.23,2.22,-1.33,1.69,-0.48,2.36,1.33,1.85,4.90,0.70,8.48,-0.12,9.80,1.41
2003-10-11 14:00,-12.00,22.85,-6.46,16.03,-4.22,4.81,-9.78,-0.78,-10.61,-1.13,-7.60,-3.58,-3.30,-5.45,-1.03,-6.45,0.23,-5.77,1.70,-3.67,3.25,-5.40,4.77,-8.82
2003-10-11 15:00,-4.11,19.01,-5.97,7.94,-6.72,2.31,-5.85,1.10,-6.82,-1.27,-5.76,-3.46,-1.24,-4.32,-0.37,-6.57,0.09,-7.06,0.51,-4.96,0.47,-6.22,0.44,-6.85
2003-10-11 16:00,6.50,10.55,0.24,3.09,0.39,1.88,1.87,-1.75,3.53,-3.86,2.25,-5.91,1.19,-7.99,-0.43,-5.65,-1.72,-6.23,-0.86,-7.02,-0.66,-10.20,-2.16,-10.43
2003-10-11 17:00,10.86,12.03,3.89,-0.11,0.11,-1.43,1.01,-3.46,2.36,-6.29,-0.88,-9.11,-2.11,-10.93,-4.94,-11.97,-5.77,-13.05,-4.53,-11.22,-5.95,-12.06,-8.61,-12.94
2003-10-11 18:00,10.64,2.80,5.41,-6.02,1.35,-4.61,3.71,-6.62,5.15,-8.70,2.52,-7.18,-1.21,-7.96,-4.66,-9.70,-6.40,-12.29,-7.45,-13.33,-8.26,-15.55,-9.52,-16.23
2003-10-11 19:00,10.72,-2.80,7.18,-4.25,3.65,-2.16,5.17,-5.57,7.14,-9.79,5.22,-7.85,2.01,-5.45,0.39,-5.62,-1.72,-8.73,-3.47,-7.37,-2.67,-7.97,-1.78,-9.59
2003-10-11 20:00,9.35,-8.10,5.78,-3.73,1.18,-2.26,4.45,-3.80,5.90,-9.11,2.91,-6.75,-0.47,-5.14,-2.59,-3.26,-4.67,-2.93,-7.26,-2.96,-4.97,-2.60,-4.11,-1.62
2003-10-11 21:00,8.50,-7.31,8.41,-0.98,3.65,-1.43,4.25,-1.36,1.64,-2.75,0.21,-1.08,-0.93,1.40,-2.27,2.05,-4.62,0.84,-4.79,1.41,-2.84,1.15,-2.05,2.01
2003-10-11 22:00,3.75,-5.68,4.18,-4.30,2.82,-2.51,8.89,-2.61,3.72,-3.08,1.87,-0.70,3.10,2.58,2.34,4.12,0.11,2.12,0.42,3.56,0.50,5.04,-1.65,5.98
2003-10-11 23:00,1.78,-1.46,2.95,-4.03,1.10,-4.47,-0.85,1.11,-4.79,1.41,-3.27,0.50,0.29,1.86,2.61,3.89,1.42,5.83,-1.41,6.25,-3.56,8.23,-0.85,10.38
2003-10-12 00:00,-14.92,-2.07,-16.50,4.76,-8.39,4.11,-7.21,1.12,-3.60,-0.53,-1.68,-1.74,-0.79,-0.86,-0.64,0.75,3.49,-0.54,5.42,1.07,5.98,4.15,6.87,5.35
2003-10-12 01:00,-13.48,5.12,-16.41,14.78,-8.67,15.38,-2.98,7.67,-1.13,2.79,1.30,0.17,2.02,1.63,5.11,4.62,10.41,2.53,11.86,3.26,10.31,5.73,10.00,6.05
2003-10-12 02:00,-19.66,12.69,-15.81,19.13,-5.52,18.49,-2.90,15.61,-0.48,6.63,3.99,3.46,5.91,3.29,2.77,2.27,2.09,-0.01,3.89,-0.84,5.09,0.76,5.19,1.83
2003-10-12 03:00,-10.21,24.21,-2.74,25.04,5.03,12.00,5.22,7.78,3.37,-0.47,2.57,-4.15,4.84,-4.42,6.57,-2.14,3.65,-3.93,5.99,-5.85,6.96,-5.99,6.36,-4.29
2003-10-12 04:00,-2.28,24.86,2.98,23.27,6.72,10.51,5.47,4.10,3.39,-4.11,4.94,-7.62,7.39,-8.88,3.84,-8.15,1.23,-9.54,2.88,-11.97,4.99,-11.36,7.42,-11.48
2003-10-12 05:00,2.50,17.09,6.60,14.12,4.93,-0.12,0.74,-2.18,-0.10,-7.84,3.97,-9.99,3.28,-10.50,-2.95,-11.28,-6.58,-16.31,-4.21,-18.74,-5.69,-18.65,-7.40,-17.07
2003-10-12 06:00,20.14,8.81,17.20,2.12,4.02,-3.41,2.81,-3.55,5.78,-7.27,1.92,-8.71,-5.95,-10.29,-10.43,-11.70,-10.19,-12.88,-7.95,-13.06,-9.49,-13.51,-9.72,-13.06
2003-10-12 07:00,25.95,-5.01,14.52,-6.17,2.03,-3.37,2.87,-3.75,5.06,-8.73,7.41,-9.29,3.80,-8.37,-1.44,-7.19,-2.72,-8.51,-5.40,-8.98,-6.45,-11.06,-6.40,-11.25
2003-10-12 08:00,19.82,-5.76,11.65,-8.47,1.45,-5.31,3.68,-4.76,3.43,-7.44,1.64,-5.25,-1.96,-0.78,-5.83,-1.08,-7.43,-0.61,-7.68,-0.48,-7.86,-0.22,-7.93,0.39
2003-10-12 09:00,20.26,-11.89,9.64,-10.51,0.78,-4.46,1.79,-6.46,1.30,-7.64,0.78,-5.50,-1.65,-3.61,-2.40,-3.20,-2.06,-2.58,-2.22,0.81,-0.70,4.90,-0.78,4.46
2003-10-12 10:00,19.42,-14.01,12.93,-10.70,1.02,-4.18,1.60,-3.70,2.35,-4.11,4.11,-2.65,2.02,1.63,1.57,2.13,2.06,3.63,2.95,7.01,2.52,8.13,3.06,8.40
2003-10-12 11:00,12.14,-9.78,9.23,-8.03,2.28,-1.73,2.46,-0.22,0.90,-0.57,3.87,2.07,4.36,5.03,3.15,7.38,2.45,9.78,4.16,13.20,5.72,11.78,6.31,12.27
2003-10-12 12:00,4.45,-7.03,2.44,-9.39,-0.48,-4.41,3.27,-0.50,2.12,0.93,3.87,1.03,6.86,3.99,6.95,10.06,7.13,13.03,7.11,13.44,7.41,12.07,9.09,10.58
2003-10-12 13:00,-8.47,9.71,-6.94,2.35,-7.36,-6.53,-5.66,3.66,-3.85,5.33,-1.48,7.17,2.92,7.11,7.29,9.64,9.16,11.43,10.28,14.37,9.49,13.51,10.53,11.00
2003-10-12 14:00,-8.49,-0.19,-14.42,1.93,-12.15,-5.12,-9.51,5.45,-10.62,6.37,-3.96,3.22,0.98,4.14,2.08,-0.33,2.56,-2.69,4.84,1.62,8.16,1.66,10.09,1.49
2003-10-12 15:00,-13.89,4.37,-16.23,-3.29,-14.39,-1.40,-7.86,3.01,-8.68,-2.75,-3.54,-7.50,1.26,-10.36,-2.75,-12.68,-0.61,-13.93,4.22,-13.35,6.90,-12.88,7.27,-13.08
2003-10-12 16:00,-9.42,12.25,-12.56,5.18,-7.83,-0.31,-6.58,2.55,-3.34,0.38,1.09,-3.01,-2.60,-5.35,-3.81,-7.26,-0.05,-10.85,1.87,-11.02,3.43,-11.71,4.34,-11.96
2003-10-12 17:00,1.18,3.79,-2.75,1.91,-5.35,-0.94,1.52,0.86,3.31,-2.05,4.28,-7.50,2.68,-10.57,-0.06,-11.90,-2.48,-13.96,-5.33,-16.67,-4.55,-17.90,-1.06,-20.21
2003-10-12 18:00,6.90,5.25,5.90,0.48,-4.67,-3.97,2.64,-4.02,1.28,-7.23,1.91,-9.03,3.48,-11.17,-0.65,-9.88,-2.72,-11.01,-11.76,-11.78,-10.65,-14.16,-7.42,-14.88
2003-10-12 19:00,18.52,-4.17,16.12,-3.82,7.74,-7.22,13.10,-8.46,13.10,-9.50,10.57,-11.91,8.74,-11.72,6.29,-12.95,4.79,-14.23,3.41,-15.57,3.38,-14.74,2.89,-14.16
2003-10-12 20:00,12.78,-11.26,14.80,-12.13,5.00,-14.58,10.85,-12.87,8.68,-16.84,5.78,-14.77,4.06,-11.73,1.64,-12.02,-0.09,-13.57,-2.60,-12.85,-2.95,-11.28,-1.91,-10.56
2003-10-12 21:00,6.93,-9.43,12.13,-15.10,8.70,-15.48,9.00,-12.58,7.91,-11.02,3.72,-10.58,2.72,-8.58,1.56,-7.46,0.45,-8.31,-1.98,-5.69,-0.73,-4.28,0.00,-4.27
2003-10-12 22:00,8.31,-17.36,16.12,-17.68,7.54,-16.86,10.44,-16.43,8.04,-12.86,6.67,-9.61,6.04,-8.55,5.83,-9.23,4.76,-8.09,2.09,-6.79,2.84,-4.38,4.41,-2.98
2003-10-12 23:00,-0.88,-10.16,9.13,-10.56,2.11,-9.70,4.10,-7.97,3.58,-5.83,3.11,-2.42,3.26,-0.09,2.00,-0.77,1.79,2.09,0.35,5.94,-0.82,8.51,-1.28,8.27
2003-10-13 00:00,-35.74,3.19,-24.66,-0.13,-9.89,-8.94,7.47,-13.76,9.57,-14.18,6.35,-13.87,3.27,-14.36,3.75,-13.18,7.20,-10.71,9.11,-6.19,9.33,-1.96,8.63,-1.02
2003-10-13 01:00,-19.79,28.80,-15.87,20.05,-10.83,-1.81,4.96,-4.49,4.93,-6.16,-0.73,-6.78,-1.89,-5.66,0.18,-4.53,1.02,-4.18,3.62,-3.84,7.27,-2.04,4.91,1.75
2003-10-13 02:00,-1.37,24.61,-2.62,10.38,-3.96,-8.56,2.67,-9.12,-0.40,-8.97,-0.52,-7.13,-1.37,-5.30,0.08,-7.38,0.88,-6.20,2.24,-6.95,4.17,-6.07,5.06,-2.69
2003-10-13 03:00,3.51,19.68,-3.80,11.18,-3.69,-1.29,2.46,-4.49,-0.58,-3.71,0.55,-2.24,2.06,-3.46,1.12,-3.84,0.27,-3.05,1.11,-4.15,3.49,-4.08,5.56,-1.19
2003-10-13 04:00,1.94,20.78,2.58,8.26,-2.52,-4.91,-3.08,-14.03,-4.48,-16.00,-5.45,-13.79,-3.03,-13.49,-3.78,-12.36,-3.07,-13.72,-4.49,-13.50,-3.45,-13.83,-0.30,-13.22
2003-10-13 05:00,9.66,6.16,-0.40,-3.24,-5.68,-13.33,-8.59,-13.35,-7.32,-10.58,-5.16,-11.20,-2.94,-12.74,-6.20,-11.19,-10.74,-11.37,-7.34,-11.22,-5.69,-10.11,-5.00,-10.32
2003-10-13 06:00,17.79,-12.71,1.69,-15.03,-3.10,-16.12,-2.10,-12.39,0.91,-13.80,0.77,-15.09,-2.26,-13.27,-2.75,-13.73,-2.10,-15.62,-2.52,-15.95,-1.63,-15.79,-2.14,-16.88
2003-10-13 07:00,12.23,-15.07,-3.94,-13.24,-5.89,-9.43,-2.47,-9.37,0.39,-13.43,1.11,-14.47,0.33,-14.28,-0.91,-12.56,-2.25,-13.68,-4.09,-14.85,-4.01,-15.14,-3.09,-15.08
2003-10-13 08:00,14.53,-16.90,4.62,-9.38,0.26,-8.36,3.36,-11.83,6.18,-14.34,4.09,-14.33,3.23,-14.58,1.61,-13.70,-0.17,-14.01,-0.68,-13.33,-2.02,-11.95,-2.72,-12.78
2003-10-13 09:00,12.74,-18.26,5.69,-9.48,1.81,-7.60,5.08,-10.60,6.70,-9.71,5.22,-8.58,3.43,-7.44,1.67,-7.85,1.42,-6.98,1.16,-7.89,0.83,-7.47,-2.29,-7.13
2003-10-13 10:00,7.49,-13.12,2.35,-6.61,2.22,-5.08,1.51,-8.00,3.08,-7.33,4.25,-4.90,2.58,-4.56,2.27,-4.55,1.58,-5.06,1.86,-5.29,1.29,-4.41,-1.66,0.35
2003-10-13 11:00,3.21,-14.17,1.90,-7.57,3.43,-3.16,2.54,-4.05,3.62,-5.61,5.30,-3.87,3.91,-3.02,1.62,-2.34,0.79,-3.42,0.31,-1.78,0.18,1.51,-0.07,5.92
2003-10-13 12:00,3.07,-7.64,4.86,0.48,6.63,1.21,4.58,0.72,6.77,0.73,6.85,2.21,6.13,1.48,3.65,2.11,2.18,2.51,1.44,4.69,1.70,8.42,2.08,9.99
2003-10-13 13:00,-10.55,-5.59,-8.41,0.98,-1.81,1.55,-1.31,0.55,0.13,-0.80,1.59,-2.24,1.38,-1.16,-0.05,-0.54,0.42,0.33,-1.24,3.18,-1.42,6.98,-4.02,7.68
2003-10-13 14:00,-15.28,4.49,-14.88,13.46,-10.66,12.93,-5.70,12.71,-0.10,8.52,3.86,3.53,7.52,-0.40,9.29,-2.18,9.72,-3.30,8.19,-2.71,9.93,-1.16,11.18,0.25
2003-10-13 15:00,-21.98,4.61,-15.89,12.64,-7.65,12.97,-2.23,11.54,1.56,3.58,4.87,-1.70,8.05,-4.00,8.02,-3.90,6.78,-5.00,5.37,-2.70,5.32,-3.23,5.81,-3.82
2003-10-13 16:00,-10.02,7.17,0.49,13.27,1.18,7.01,1.51,0.55,2.69,-5.26,4.68,-8.53,5.58,-8.37,-0.73,-11.05,0.11,-10.70,0.58,-7.33,0.50,-7.77,0.05,-6.24
2003-10-13 17:00,3.47,9.87,8.77,7.78,2.87,0.53,2.48,-7.40,1.26,-12.13,-0.27,-15.08,-1.50,-15.86,-0.08,-16.80,0.78,-15.82,-1.50,-14.82,-1.85,-13.98,-3.89,-13.75
2003-10-13 18:00,9.50,3.51,5.21,-2.12,1.23,-5.27,-0.47,-5.87,-1.17,-8.47,-2.40,-11.75,-7.66,-11.93,-9.85,-14.76,-8.25,-15.96,-8.25,-13.46,-6.64,-14.34,-5.84,-16.71
2003-10-13 19:00,16.20,-3.38,12.45,-6.57,2.99,-5.59,2.94,-12.17,1.22,-13.08,-1.80,-10.95,-6.43,-13.97,-9.41,-17.34,-9.00,-18.37,-9.05,-17.86,-11.79,-16.68,-12.99,-14.01
2003-10-13 20:00,21.93,-17.23,21.41,-20.09,9.38,-16.01,2.31,-17.14,-0.77,-14.81,-2.49,-15.00,-5.55,-16.63,-8.87,-18.12,-11.03,-19.27,-12.20,-18.47,-13.22,-17.83,-13.16,-16.25
2003-10-13 21:00,21.53,-13.39,14.72,-14.34,3.93,-5.94,-2.99,-4.73,-2.77,-4.77,-3.84,-3.62,-7.55,-3.04,-11.53,-5.46,-11.77,-6.05,-12.50,-5.01,-12.36,-2.99,-12.71,-1.43
2003-10-13 22:00,18.35,-18.91,10.71,-19.16,3.06,-11.50,-0.56,-13.40,-0.24,-9.86,-2.74,-9.14,-5.10,-10.35,-6.85,-9.71,-7.21,-6.70,-5.78,-2.32,-4.34,-0.85,-4.02,-0.86
2003-10-13 23:00,12.05,-13.77,3.29,-9.46,1.21,-4.85,3.90,-3.34,3.34,-0.38,1.39,-1.89,-0.48,-1.91,-0.78,0.19,-0.73,5.00,-0.08,8.10,1.83,9.39,3.83,8.62
2003-10-14 00:00,6.46,-8.53,-0.40,-8.24,-2.87,-1.57,-2.18,-2.51,0.85,-0.06,-1.23,1.72,-2.77,2.00,-4.21,3.35,-3.71,5.90,-0.84,8.92,0.39,10.43,-1.97,10.99
2003-10-14 01:00,-3.32,-5.04,-6.89,-3.16,-6.34,0.65,-9.55,5.23,-5.37,4.47,3.48,4.14,5.90,4.75,3.09,6.53,1.24,6.09,3.55,10.31,4.85,10.48,3.37,9.84
2003-10-14 02:00,-6.32,-2.27,-6.11,-0.12,-3.06,3.69,-4.22,7.31,1.14,6.79,5.59,6.53,5.27,6.55,4.77,9.32,5.04,11.27,5.20,11.42,6.85,10.76,6.29,9.13
2003-10-14 03:00,-19.73,4.75,-20.51,8.48,-17.70,7.43,-17.72,6.79,-12.01,5.44,-4.17,5.34,2.36,4.03,7.28,0.05,9.72,-3.30,9.52,-2.63,9.44,-0.57,8.82,-0.23
2003-10-14 04:00,-4.33,9.46,-10.71,12.39,-9.40,11.11,-8.38,12.24,-6.58,7.87,-0.32,2.51,5.52,-3.18,6.31,-5.55,5.55,-6.50,3.15,-6.48,4.28,-3.96,5.72,-3.53
2003-10-14 05:00,0.40,7.52,-4.42,12.25,-2.99,11.63,-2.71,13.17,-1.12,4.88,2.42,-0.44,6.28,-2.95,4.46,-7.76,3.50,-8.77,2.90,-7.07,2.44,-5.85,3.15,-5.43
2003-10-14 06:00,-14.20,7.93,-13.85,7.09,-8.59,9.78,-9.98,18.44,-7.56,19.77,0.67,15.51,10.27,9.05,11.36,-0.74,13.57,-10.41,14.09,-14.32,10.53,-20.67,9.06,-24.54
2003-10-14 07:00,5.78,9.09,4.62,11.25,2.97,7.64,9.20,4.15,7.54,0.23,4.60,-3.24,3.10,-5.24,0.81,-8.83,-3.85,-11.76,-7.17,-14.29,-6.87,-16.39,-3.96,-16.37
2003-10-14 08:00,18.71,-0.57,21.91,1.31,11.78,-1.45,11.11,-6.65,9.95,-9.80,6.04,-10.32,-0.36,-9.80,-4.21,-11.24,-6.09,-13.35,-6.80,-11.99,-7.63,-11.30,-7.98,-10.46
2003-10-14 09:00,27.65,-7.95,20.31,-6.04,6.48,-6.13,7.88,-9.47,5.70,-8.44,2.19,-9.26,0.50,-9.54,0.20,-7.44,-3.25,-6.68,-5.95,-6.01,-6.94,-3.70,-5.35,1.56
2003-10-14 10:00,20.97,-6.16,26.63,-6.27,14.07,-4.63,10.52,-8.17,7.60,-6.74,5.10,-6.74,2.73,-6.49,0.80,-2.37,3.24,0.32,6.22,2.24,4.44,1.20,4.71,4.92
2003-10-14 11:00,21.76,-10.61,18.35,-12.13,5.66,-6.89,0.20,-9.94,0.61,-7.43,-1.20,-5.15,-4.70,-3.88,-5.40,-4.71,-5.41,-2.52,-4.95,0.53,-4.34,4.88,-2.48,8.13
2003-10-14 12:00,9.63,-4.06,15.07,-10.18,5.84,-4.65,2.14,-8.02,1.76,-7.09,1.66,-6.39,-0.24,-3.09,-1.68,-1.01,-0.90,3.07,2.92,7.11,6.49,12.01,5.73,14.60
2003-10-14 13:00,4.05,-2.46,8.96,-7.48,1.99,-3.59,-3.18,-5.52,-5.10,-4.31,-1.44,-3.97,-0.32,-1.76,-0.07,1.65,1.48,6.69,3.77,10.27,5.49,11.51,4.23,14.37
2003-10-14 14:00,-5.07,1.64,0.04,-4.78,0.08,-3.10,-2.83,-2.81,-5.81,2.05,-5.03,0.09,-1.37,-2.80,0.32,-0.74,1.30,2.67,4.64,6.57,7.42,6.34,8.71,7.97
2003-10-14 15:00,-9.72,8.30,-7.62,1.10,-2.52,-3.86,-3.01,-1.82,-4.73,1.22,-3.64,1.75,-2.91,-1.79,-1.03,-2.91,0.31,-1.78,2.57,1.90,4.14,4.02,6.74,3.33
2003-10-14 16:00,-3.18,12.30,-5.16,5.16,-3.27,-2.00,-3.46,-3.83,-2.62,-0.66,-1.16,2.89,0.66,4.15,1.82,-0.51,3.27,-4.77,5.60,-5.24,6.38,-2.93,8.72,-0.26
2003-10-14 17:00,8.69,15.88,8.69,15.88,8.69,15.88,8.69,15.88,8.69,15.88,8.69,15.88,8.69,15.88,8.69,15.88,8.69,15.88,8.69,15.88,8.69,15.88,8.69,15.88
2003-10-14 18:00,7.79,6.86,-1.55,-0.77,-5.95,-5.29,-8.88,-3.12,-2.88,-0.84,2.58,-2.06,0.50,-5.27,-1.78,-9.59,2.49,-13.13,3.99,-15.40,3.79,-14.00,4.70,-11.44
2003-10-14 19:00,11.52,4.42,-0.48,-0.14,-5.47,-1.60,-8.49,0.54,-1.18,-0.24,3.57,-2.60,4.23,-5.54,-0.82,-9.30,-2.65,-13.38,-3.00,-13.59,-3.97,-14.92,-3.19,-16.15
2003-10-14 20:00,13.21,4.70,4.51,-1.18,0.11,-2.88,-0.85,-0.66,2.21,-1.13,4.17,-5.34,6.74,-10.22,2.93,-10.71,-4.63,-12.30,-7.73,-13.83,-6.39,-15.21,-5.86,-16.30
2003-10-14 21:00,17.06,-0.63,7.05,-0.96,4.52,1.64,6.15,-1.43,8.94,-6.34,7.11,-6.15,1.17,-6.85,-4.67,-8.24,-6.61,-7.67,-7.25,-6.19,-7.59,-5.04,-6.40,-3.75
2003-10-14 22:00,15.03,-2.58,5.48,-2.35,2.23,-2.99,4.27,-10.32,-1.86,-12.53,-6.96,-11.10,-7.55,-10.86,-10.07,-8.68,-11.65,-8.62,-10.95,-7.79,-10.81,-5.77,-10.28,-5.09
2003-10-14 23:00,12.85,-3.32,5.91,-5.25,2.51,-2.18,-2.85,-5.94,-3.04,-4.22,-3.53,-2.18,-5.12,-0.67,-6.86,-0.76,-8.38,0.15,-8.23,2.49,-9.04,4.54,-6.39,6.88
2003-10-15 00:00,14.71,-7.89,10.08,-6.32,1.51,-0.18,-1.39,-5.20,-1.99,-4.96,-2.47,-4.37,-2.73,-2.78,-3.70,-0.88,-5.18,0.98,-5.64,5.75,-3.44,8.89,-2.71,13.90
2003-10-15 01:00,10.26,-4.81,6.87,-6.01,0.11,0.34,-2.53,-2.41,-2.91,-2.52,-2.94,-0.65,-2.88,1.66,-4.14,4.52,-5.38,9.47,-5.09,16.33,-4.22,19.40,-2.57,19.46
2003-10-15 02:00,-6.53,-11.50,-6.55,-8.59,-6.72,2.31,-3.39,-11.20,-2.24,-14.41,-4.67,-13.24,-4.59,-11.03,-4.03,-7.95,-3.53,-3.95,-3.41,2.02,-2.09,6.79,-1.59,8.29
2003-10-15 03:00,-13.71,4.84,-14.15,-2.58,-9.83,2.96,-7.74,-3.10,-3.87,-7.07,-1.50,-9.82,-3.02,-8.18,-2.95,-6.28,-1.17,-4.20,1.66,0.38,3.39,5.16,5.58,7.99
2003-10-15 04:00,-7.09,11.05,-7.75,1.90,-7.03,6.59,-0.69,-1.56,3.07,-7.64,2.74,-9.72,-0.40,-5.74,0.22,-3.58,2.37,-0.97,6.65,3.61,9.85,5.49,11.19,4.84
2003-10-15 05:00,-15.52,9.94,-13.41,2.74,-7.45,5.53,-5.49,-6.51,-5.81,-14.31,-7.97,-17.96,-9.55,-16.86,-9.99,-12.51,-8.30,-8.68,-5.11,-5.67,-0.62,-3.93,2.88,-4.16
2003-10-15 06:00,8.69,15.88,8.69,15.88,8.69,15.88,8.69,15.88,8.69,15.88,8.69,15.88,8.69,15.88,8.69,15.88,8.69,15.88,8.69,15.88,8.69,15.88,8.69,15.88
2003-10-15 07:00,9.19,7.07,4.79,-3.91,0.69,-4.49,-0.71,-19.28,-4.68,-22.10,-9.23,-21.15,-8.70,-20.47,-5.21,-21.01,-1.45,-19.60,0.82,-20.60,2.69,-21.30,4.76,-20.90
2003-10-15 08:00,13.11,15.72,9.94,2.70,-3.42,-1.84,0.08,-14.15,-2.36,-15.07,-3.72,-11.51,-3.76,-9.23,-4.16,-11.43,-2.26,-12.23,-1.90,-8.47,-2.38,-10.39,-1.70,-10.92
2003-10-15 09:00,8.69,15.88,8.69,15.88,8.69,15.88,8.69,15.88,8.69,15.88,8.69,15.88,8.69,15.88,8.69,15.88,8.69,15.88,8.69,15.88,8.69,15.88,8.69,15.88
2003-10-15 10:00,19.02,11.19,13.52,1.87,-5.59,1.28,-2.31,-2.45,-2.58,-2.21,-1.59,-2.03,-1.61,-1.62,-1.66,-2.88,-0.82,-3.26,-5.58,-1.22,-3.35,-0.67,-2.66,-2.65
2003-10-15 11:00,6.84,-0.60,6.03,-8.13,-6.65,-13.93,-7.29,-11.41,-6.64,-13.61,-4.01,-13.36,-3.85,-14.26,-3.61,-14.71,-3.46,-15.60,-3.71,-14.01,-4.88,-15.70,-5.54,-15.59
2003-10-15 12:00,3.82,10.81,3.05,2.77,-11.56,-2.86,-6.32,-7.58,-4.45,-8.28,-3.57,-9.17,-6.04,-9.27,-10.51,-8.60,-12.10,-10.63,-6.17,-9.52,-3.83,-11.12,-8.52,-7.91
2003-10-15 13:00,-2.22,18.63,-1.61,11.20,-0.44,4.35,-4.14,-12.57,-5.45,-19.10,-3.44,-19.56,-4.67,-13.24,-4.76,-18.27,-9.13,-15.07,-9.92,-18.43,-9.46,-21.42,-9.98,-19.28
2003-10-15 14:00,17.01,19.15,16.22,15.06,9.64,11.57,11.30,-3.36,7.88,-18.74,7.31,-23.91,7.13,-22.92,5.60,-21.28,3.77,-21.40,3.39,-21.20,4.98,-23.76,5.48,-22.99
2003-10-15 15:00,26.58,29.87,24.92,29.49,20.81,29.64,18.93,22.53,16.49,13.79,8.56,3.86,1.19,-7.99,1.20,-12.99,-2.60,-9.62,-4.27,-8.54,-4.31,-14.81,2.59,-17.37
2003-10-15 16:00,29.37,18.91,26.47,16.71,16.25,14.97,15.74,13.15,11.94,8.70,5.19,2.56,-6.85,-6.49,-13.56,-13.14,-9.59,-12.81,-13.07,-11.95,-14.64,-12.62,-14.23,-15.11
2003-10-15 17:00,28.98,15.26,22.89,7.22,15.20,7.16,5.10,0.03,-8.36,-3.49,-20.52,-8.92,-24.47,-12.16,-24.88,-11.45,-24.88,-12.18,-28.56,-5.65,-27.09,-4.28,-22.75,-8.43
2003-10-15 18:00,8.69,15.88,8.69,15.88,8.69,15.88,8.69,15.88,8.69,15.88,8.69,15.88,8.69,15.88,8.69,15.88,8.69,15.88,8.69,15.88,8.69,15.88,8.69,15.88
2003-10-15 19:00,37.13,-8.30,30.19,-10.96,20.80,-6.62,0.90,-1.30,-9.98,-3.65,-16.24,-8.61,-16.96,-11.84,-15.47,-10.88,-14.28,-9.60,-9.66,-1.89,-4.59,-4.26,-3.81,-5.49
2003-10-15 20:00,42.65,-20.75,35.77,-19.33,26.05,-11.75,11.28,-8.99,-4.00,-8.05,-12.15,-10.12,-11.87,-12.12,-10.56,-12.68,-9.77,-10.78,-7.51,-8.87,-5.32,-8.54,-3.65,-9.61
2003-10-15 21:00,43.10,-20.52,35.24,-20.73,22.67,-14.10,7.86,-8.33,-2.44,-2.69,-8.50,-0.51,-10.37,-2.31,-10.02,-3.14,-8.92,-3.34,-7.41,-1.75,-5.09,-0.76,-8.27,0.50
2003-10-15 22:00,45.55,-25.32,40.74,-25.27,26.78,-16.75,11.87,-6.01,4.08,-4.33,0.85,-1.84,-0.89,-2.66,-1.05,-3.54,-1.16,-3.15,1.59,2.03,0.83,-3.20,1.92,-4.44
2003-10-15 23:00,37.23,-22.55,32.07,-22.70,20.39,-13.41,9.14,-4.51,-2.07,2.10,-5.52,3.91,-8.64,4.97,-8.42,4.93,-6.33,4.19,-6.01,5.95,-10.06,6.95,-3.02,2.14
2003-10-16 00:00,24.13,-25.13,13.92,-24.06,4.23,-5.54,-6.80,4.37,-9.64,5.51,-11.43,5.93,-12.22,5.80,-11.54,8.08,-12.10,7.50,-10.96,6.48,-11.01,5.22,-11.72,2.30
2003-10-16 01:00,21.91,-23.59,11.67,-14.61,9.56,0.82,-1.95,6.31,-5.33,6.46,-6.99,6.08,-7.54,5.82,-7.53,6.13,-8.32,5.28,-6.87,4.97,-6.42,2.71,-6.55,1.73
2003-10-16 02:00,20.74,-27.06,16.19,-24.33,17.53,-13.62,0.37,-4.48,-3.35,2.56,-1.69,4.71,0.67,6.24,1.74,6.87,2.60,5.35,2.95,4.51,5.30,3.95,5.40,6.48
2003-10-16 03:00,14.14,-16.28,7.79,-15.22,7.80,-5.64,-8.13,-2.48,-9.16,4.61,-3.77,9.32,1.35,9.25,4.01,8.36,3.95,5.01,1.02,5.41,-0.57,6.92,-0.25,6.18
2003-10-16 04:00,0.70,-18.76,-3.28,-16.90,2.76,-7.63,-13.90,-0.21,-9.83,5.46,-3.86,1.79,-2.98,-0.87,-2.89,-1.89,-5.68,-3.02,-7.85,-5.22,-8.80,-4.45,-9.27,-4.28
2003-10-16 05:00,8.68,-16.84,6.80,-17.18,12.90,-12.38,-0.82,-3.26,3.27,2.00,8.00,-0.26,8.02,-2.13,6.15,-2.16,2.87,-1.97,0.39,-3.12,-0.18,-3.28,-0.63,-1.75
2003-10-16 06:00,-7.30,-14.22,-7.59,-13.58,-2.21,-8.46,-14.70,-3.16,-16.23,5.98,-5.56,5.46,0.28,-3.46,-1.12,-3.66,-4.93,-4.88,-4.93,-6.65,-1.45,-6.78,-0.04,-8.76
2003-10-16 07:00,5.74,-9.99,4.78,-6.00,12.50,0.01,-2.51,1.45,-7.83,8.23,-2.04,8.05,2.93,-0.39,2.10,-3.97,-0.11,-5.66,2.12,-6.88,5.69,-8.75,7.92,-9.25
2003-10-16 08:00,-7.45,-17.60,-9.13,-15.07,0.17,-11.62,-11.43,-6.16,-17.33,-2.37,-17.77,-0.51,-6.08,-4.49,-0.14,-10.56,-1.36,-12.07,-1.05,-14.58,0.18,-17.35,1.45,-20.62
2003-10-16 09:00,4.79,-14.23,4.62,-11.88,9.46,-7.75,4.52,-0.86,1.28,4.54,-0.80,8.42,5.32,6.04,14.12,-5.87,18.41,-13.05,19.19,-13.24,17.30,-12.13,14.93,-13.97
2003-10-16 10:00,9.14,-8.79,6.98,-3.90,11.21,2.66,9.09,6.31,6.62,12.25,8.85,10.72,13.38,-2.65,14.56,-10.22,15.28,-8.76,13.06,-8.68,8.96,-8.53,3.83,-7.74
2003-10-16 11:00,6.85,-12.37,6.81,-7.59,11.44,3.98,11.13,7.53,13.22,3.25,11.47,-5.71,7.01,-11.49,2.75,-11.18,1.55,-11.01,-1.34,-5.39,-4.04,-3.27,-3.56,-0.31
2003-10-16 12:00,13.94,-8.11,12.99,-3.80,16.90,5.26,16.45,1.48,10.27,-3.77,3.36,-4.02,1.81,-3.33,0.55,-2.96,-2.49,-3.96,-4.29,-3.86,-3.01,-1.82,-2.40,1.07
2003-10-16 13:00,4.46,-9.53,4.76,-8.09,10.06,3.36,8.14,3.53,11.28,-2.22,10.06,-8.73,7.98,-7.67,3.72,-6.31,3.00,-5.27,3.22,-3.54,0.68,-1.26,-4.26,-1.46
2003-10-16 14:00,11.48,-4.35,11.65,-1.70,15.05,5.55,13.53,2.19,9.53,-7.63,7.64,-7.24,4.11,-5.15,2.43,-5.44,0.72,-4.58,-0.62,-2.16,-1.81,2.28,-3.85,4.60
2003-10-16 15:00,10.27,0.51,7.87,2.30,12.86,10.54,11.52,9.42,9.14,0.80,4.97,-5.94,4.04,-3.82,3.83,-4.19,2.15,-3.43,0.65,-2.21,0.67,0.92,-0.01,2.18
2003-10-16 16:00,12.00,1.01,8.42,2.57,10.27,4.78,7.05,9.36,3.68,2.74,0.20,-3.90,1.15,-3.93,-0.07,-3.67,-2.33,-3.08,-2.29,-4.63,0.41,-4.26,0.13,-1.52
2003-10-16 17:00,3.05,-2.23,-0.03,2.60,5.29,12.18,-0.68,5.53,-6.50,-2.01,-9.33,-4.09,-10.83,-1.81,-10.76,-1.69,-9.38,-2.12,-7.76,-3.73,-8.29,-5.86,-7.29,-6.41
2003-10-16 18:00,10.65,3.12,2.96,4.83,8.32,11.08,2.66,7.65,-1.77,1.05,-4.52,0.86,-3.04,0.78,-2.27,1.00,-2.52,4.68,-2.17,3.85,-1.33,-0.81,0.85,-5.38
2003-10-16 19:00,4.53,2.68,-0.36,7.29,6.22,11.51,-2.22,7.58,-7.07,1.37,-9.89,2.83,-9.53,2.31,-7.79,2.41,-7.15,2.70,-7.20,2.16,-5.89,-1.93,-5.19,-6.11
2003-10-16 20:00,13.29,2.64,7.96,8.06,10.17,10.48,2.23,10.55,-1.85,2.06,-4.56,-2.58,-0.44,-0.65,1.45,-1.03,0.39,-3.12,3.12,-3.88,-0.29,-6.86,-2.71,-9.96
2003-10-16 21:00,14.79,-3.17,9.74,3.37,8.86,7.80,0.33,6.35,-6.25,0.36,-5.27,-1.23,-0.11,-2.84,0.55,-2.96,0.54,-5.05,-1.13,-5.75,-4.53,-6.95,-7.05,-9.36
2003-10-16 22:00,14.07,-2.86,9.03,3.68,6.00,8.32,1.26,8.50,-4.06,8.19,-0.56,6.19,3.36,4.53,3.88,3.12,4.44,1.20,2.72,-0.77,1.96,-0.99,-0.62,-2.16
2003-10-16 23:00,16.47,-9.98,11.85,-3.10,11.24,-0.67,6.51,-0.18,5.39,1.89,8.82,-0.23,8.63,-1.02,7.76,-4.08,9.18,-4.29,6.56,-5.69,5.16,-3.39,4.39,-1.84
2003-10-17 00:00,10.91,-6.29,7.78,1.55,5.82,2.54,1.65,6.84,0.57,6.94,6.50,2.01,5.69,1.56,5.61,3.62,4.50,0.28,5.41,-1.02,2.88,0.11,-1.18,-2.74
2003-10-17 01:00,4.58,-4.60,6.97,1.10,4.39,5.66,0.95,6.74,3.58,11.99,3.85,5.71,4.51,3.09,5.88,4.85,3.90,6.25,3.51,5.82,2.64,4.52,2.74,3.82